Tracking 18850 objects as of 22-Nov-2017
HD Live streaming from Space Station
objects crossing your sky now

COSMOS 449

Track COSMOS 449 now!
10-day predictions
COSMOS 449 is classified as:


NORAD ID: 5552
Int'l Code: 1971-086F
Perigee: 1,489.1 km
Apogee: 1,549.5 km
Inclination: 74.0 °
Period: 116.3 minutes
Semi major axis: 7890 km
RCS: 0.713 m2 (medium)
Launch date: October 13, 1971
Source: Commonwealth of Independent States (former USSR) (CIS)
Launch site: PLESETSK MISSILE AND SPACE COMPLEX (PKMTR)
aabbcc
Your satellite tracking list
Your tracking list is empty




NASA's NSSDC Master Catalog

Two Line Element Set (TLE):
1  5552U 71086F   17326.36319116 -.00000015 +00000-0 +39615-5 0  9994
2  5552 074.0277 286.0082 0038295 261.1049 216.2408 12.38691242085040
Source of the keplerian elements: AFSPC